Location: Unnamed
(53.9021°N, 27.5568°E)
Time: 18:41:54
(UTC+03:00)

STARLINK-73 - Pass Details

Date: 18 January 2020
Orbit: 528 x 531 km, 53.0° (Epoch: 25 February)

Event Time Altitude Azimuth Distance (km) Brightness Sun altitude
Rises 08:31:54 0° 224° (SW) 2,661 6.9 -6.6°
Reaches altitude 10° 08:34:15 10° 215° (SW) 1,775 6.1 -6.3°
Maximum altitude 08:37:53 34° 150° (SSE) 897 5.4 -5.8°
Drops below altitude 10° 08:41:33 10° 85° (E) 1,784 7.2 -5.3°
Sets 08:43:54 0° 76° (ENE) 2,677 7.9 -5.0°
